W5CRT Weather Reports


time (UTC)temp
C
wind
direction
speed
KPH
gust
KPH
rain 1hr
cm
rain 24hr
cm
rain mn
cm
humidity
%
barometer
mb
20260509064620 20 102 3.2 3.2 0.00 0.00 0.00 88 1008.2
20260509064118 20 122 3.2 3.2 0.00 0.00 0.00 88 1008.2
20260509063614 20 106 3.2 3.2 0.00 0.00 0.00 88 1007.9
20260509063111 20 183 1.6 1.6 0.00 0.00 0.00 87 1007.8
20260509062608 20 136 0.0 3.2 0.00 0.00 0.00 87 1007.6
20260509062105 20 97 1.6 6.4 0.00 0.00 0.00 87 1007.6
20260509061602 20 114 4.8 6.4 0.00 0.00 0.00 87 1007.7
20260509061059 21 156 6.4 6.4 0.00 0.00 0.00 87 1007.9
20260509060557 21 136 0.0 3.2 0.00 0.00 0.00 86 1008.2
20260509060052 21 157 0.0 3.2 0.00 0.00 0.00 86 1008.2
20260509055548 21 148 3.2 4.8 0.00 0.00 0.00 86 1008.5
20260509055044 21 198 1.6 4.8 0.00 0.00 0.00 86 1008.5
20260509054541 21 176 1.6 3.2 0.00 0.00 0.00 86 1008.6
20260509054039 21 188 0.0 3.2 0.00 0.00 0.00 86 1008.2
20260509053537 21 202 3.2 3.2 0.00 0.00 0.00 86 1008.7
20260509053034 21 132 3.2 3.2 0.00 0.00 0.00 86 1008.7
20260509052531 21 166 0.0 1.6 0.00 0.00 0.00 86 1009.1
20260509052029 21 231 1.6 3.2 0.00 0.00 0.00 86 1008.9
20260509051527 21 193 0.0 3.2 0.00 0.00 0.00 86 1008.6
20260509051024 21 164 0.0 3.2 0.00 0.00 0.00 86 1008.8
20260509050521 21 343 0.0 3.2 0.00 0.00 0.00 86 1009.2
20260509050017 21 80 3.2 3.2 0.00 0.00 0.00 85 1008.8
20260509045514 21 101 4.8 4.8 0.00 0.03 0.03 85 1008.7
20260509045011 21 104 1.6 4.8 0.00 0.03 0.03 84 1008.5
20260509044509 21 104 4.8 6.4 0.00 0.03 0.03 83 1008.2
20260509044007 21 35 1.6 3.2 0.05 0.03 0.03 82 1008.0
20260509043502 21 172 3.2 6.4 0.05 0.03 0.03 82 1007.5
20260509042957 21 144 3.2 8.0 0.00 0.03 0.03 82 1007.6
20260509042455 21 177 3.2 6.4 0.00 0.03 0.03 81 1007.1
20260509041950 21 174 9.7 24.1 0.00 0.03 0.03 80 1006.4
20260509041448 21 117 3.2 11.3 0.00 0.03 0.03 81 1006.9
20260509040946 21 179 6.4 8.0 0.00 0.03 0.03 81 1007.5
20260509040444 21 113 0.0 9.7 0.00 0.03 0.03 81 1007.9
20260509035940 21 153 3.2 4.8 0.00 0.03 0.03 82 1008.3
20260509035437 21 140 3.2 4.8 0.00 0.03 0.03 82 1008.3
20260509034933 21 156 4.8 6.4 0.00 0.03 0.03 82 1008.5
20260509034431 21 136 3.2 3.2 0.00 0.03 0.03 82 1008.8
20260509033928 21 119 3.2 3.2 0.00 0.03 0.03 82 1009.0
20260509033425 21 98 3.2 3.2 0.00 0.03 0.03 82 1009.0
20260509032921 21 23 3.2 3.2 0.00 0.03 0.03 82 1008.7
20260509032419 21 230 0.0 0.0 0.00 0.03 0.03 82 1008.3
20260509031917 21 164 0.0 1.6 0.00 0.03 0.03 82 1008.3
20260509031414 21 224 0.0 1.6 0.00 0.03 0.03 82 1008.5
20260509030911 21 117 0.0 0.0 0.00 0.03 0.03 81 1007.9
20260509030409 21 106 0.0 1.6 0.00 0.03 0.03 81 1007.8
20260509025906 21 79 1.6 3.2 0.00 0.03 0.03 81 1008.1
20260509025402 21 106 3.2 4.8 0.00 0.03 0.03 80 1008.0
20260509024857 21 104 1.6 3.2 0.00 0.03 0.03 80 1007.8
20260509024353 21 125 3.2 4.8 0.00 0.03 0.03 80 1007.9
20260509023850 21 105 1.6 4.8 0.00 0.03 0.03 80 1007.7
20260509023348 21 100 1.6 3.2 0.00 0.03 0.03 79 1007.9
20260509022844 21 76 0.0 3.2 0.00 0.03 0.03 78 1007.3
20260509022341 21 162 1.6 3.2 0.00 0.03 0.03 78 1007.4
20260509021838 21 185 3.2 6.4 0.00 0.03 0.03 77 1007.3
20260509021335 22 154 3.2 3.2 0.00 0.03 0.03 77 1007.3
20260509020833 22 141 1.6 4.8 0.00 0.03 0.03 77 1007.3
20260509020331 22 136 1.6 3.2 0.00 0.03 0.03 76 1007.2
20260509015828 22 48 0.0 3.2 0.00 0.03 0.03 76 1007.2
20260509015326 22 144 1.6 4.8 0.00 0.03 0.03 76 1007.4
20260509014823 22 175 1.6 3.2 0.00 0.03 0.03 75 1007.1
20260509014320 22 127 3.2 4.8 0.00 0.03 0.03 76 1007.0
20260509013816 22 124 0.0 3.2 0.00 0.03 0.03 75 1007.0
20260509013313 22 175 1.6 3.2 0.00 0.03 0.03 75 1006.9
20260509012809 22 133 3.2 4.8 0.00 0.03 0.03 74 1007.0
20260509012307 22 133 3.2 4.8 0.00 0.03 0.03 74 1007.2
20260509011803 22 129 1.6 6.4 0.00 0.03 0.03 73 1006.9
20260509011300 22 136 3.2 6.4 0.00 0.03 0.03 73 1006.7
20260509010758 22 139 3.2 4.8 0.00 0.03 0.03 73 1007.0
20260509010255 22 128 1.6 3.2 0.00 0.03 0.03 73 1006.7
20260509005752 22 153 1.6 4.8 0.00 0.03 0.03 72 1006.9
20260509005250 23 188 3.2 3.2 0.00 0.03 0.03 71 1006.5
20260509004749 23 165 3.2 6.4 0.00 0.03 0.03 70 1006.3
20260509004247 23 141 3.2 8.0 0.00 0.03 0.03 69 1006.4
20260509003745 23 178 4.8 6.4 0.00 0.03 0.03 69 1006.5
20260509003242 23 187 3.2 8.0 0.00 0.03 0.03 68 1006.3
20260509002739 23 173 0.0 4.8 0.00 0.03 0.03 67 1006.2
20260509002237 23 157 4.8 9.7 0.00 0.03 0.03 66 1006.5
20260509001734 23 148 8.0 8.0 0.00 0.03 0.03 66 1006.3
20260509001230 24 175 4.8 8.0 0.00 0.03 0.03 65 1006.3
20260509000728 23 148 4.8 8.0 0.00 0.03 0.03 65 1006.3
20260509000226 24 147 4.8 9.7 0.00 0.03 0.03 65 1006.5
20260508235722 24 121 1.6 9.7 0.00 0.03 0.03 65 1006.6
20260508235218 24 153 1.6 9.7 0.00 0.03 0.03 66 1006.6
20260508234716 24 158 3.2 11.3 0.00 0.03 0.03 67 1006.8
20260508234212 24 157 6.4 8.0 0.00 0.03 0.03 67 1006.8
20260508233712 24 167 3.2 8.0 0.00 0.03 0.03 68 1007.1
20260508233209 23 133 3.2 9.7 0.00 0.03 0.03 69 1006.7
20260508232706 23 154 1.6 9.7 0.00 0.03 0.03 70 1007.0
20260508232202 23 183 4.8 12.9 0.00 0.03 0.03 69 1007.0
20260508231701 23 186 3.2 20.9 0.00 0.03 0.03 70 1007.1
20260508231157 23 197 6.4 14.5 0.00 0.03 0.03 69 1006.8
20260508230654 24 213 8.0 14.5 0.00 0.03 0.03 68 1006.9
20260508230150 25 215 4.8 12.9 0.00 0.03 0.03 67 1007.0
20260508225648 25 315 1.6 11.3 0.00 0.03 0.03 65 1006.9
20260508225144 25 181 4.8 9.7 0.00 0.03 0.03 63 1007.1
20260508224642 26 202 3.2 8.0 0.00 0.03 0.03 63 1007.0
20260508224140 25 157 8.0 9.7 0.00 0.03 0.03 63 1007.2
20260508223637 26 215 9.7 12.9 0.00 0.03 0.03 61 1007.1
20260508223134 26 176 3.2 6.4 0.00 0.03 0.03 61 1007.2
20260508222632 26 187 4.8 9.7 0.00 0.03 0.03 60 1006.9
20260508222128 26 216 3.2 6.4 0.00 0.03 0.03 60 1007.0
20260508221625 26 169 6.4 9.7 0.00 0.03 0.03 60 1006.5
20260508221120 26 214 4.8 9.7 0.00 0.03 0.03 60 1006.8
20260508220617 26 247 3.2 8.0 0.00 0.03 0.03 60 1006.7
20260508220114 26 133 6.4 6.4 0.00 0.03 0.03 60 1006.8
20260508215611 25 125 6.4 6.4 0.00 0.03 0.03 61 1006.7
20260508215107 25 99 3.2 8.0 0.00 0.03 0.03 62 1006.3
20260508214605 25 142 4.8 6.4 0.00 0.03 0.03 62 1006.4
20260508214101 25 164 6.4 9.7 0.00 0.03 0.03 61 1006.7
20260508213558 25 160 9.7 14.5 0.00 0.03 0.03 60 1006.9
20260508213054 25 197 4.8 9.7 0.00 0.03 0.03 63 1007.2
20260508212551 25 151 3.2 6.4 0.00 0.03 0.03 63 1007.4
20260508212047 24 143 4.8 8.0 0.00 0.03 0.03 67 1007.3
20260508211543 23 268 0.0 6.4 0.00 0.03 0.03 68 1007.7
20260508211039 23 182 3.2 17.7 0.00 0.03 0.03 67 1007.9
20260508210536 23 195 3.2 8.0 0.00 0.03 0.03 67 1008.1
20260508210034 23 190 3.2 11.3 0.00 0.03 0.03 66 1008.5
20260508205530 23 214 4.8 9.7 0.00 0.03 0.03 66 1008.0
20260508205026 23 182 6.4 16.1 0.00 0.03 0.03 65 1008.6
20260508204524 23 194 3.2 14.5 0.00 0.03 0.03 65 1008.3
20260508204019 24 176 3.2 16.1 0.00 0.03 0.03 64 1008.8
20260508203515 24 218 9.7 12.9 0.00 0.03 0.03 63 1008.7
20260508203011 24 210 11.3 12.9 0.00 0.03 0.03 63 1008.5
20260508202509 25 206 12.9 16.1 0.00 0.03 0.03 61 1008.5
20260508202005 25 255 3.2 12.9 0.00 0.03 0.03 60 1008.8
20260508201502 25 213 3.2 8.0 0.00 0.03 0.03 62 1008.8
20260508200959 26 209 8.0 20.9 0.00 0.03 0.03 58 1008.5
20260508200456 26 158 4.8 11.3 0.00 0.03 0.03 59 1008.8
20260508195950 26 197 8.0 11.3 0.00 0.03 0.03 59 1009.1
20260508195448 26 214 9.7 9.7 0.00 0.03 0.03 58 1008.8
20260508194944 26 250 6.4 8.0 0.00 0.03 0.03 60 1008.9
20260508194442 25 242 8.0 9.7 0.00 0.03 0.03 61 1009.2
20260508193938 25 211 9.7 11.3 0.00 0.03 0.03 59 1009.2
20260508193435 26 224 3.2 6.4 0.00 0.03 0.03 57 1009.1
20260508192932 26 136 3.2 8.0 0.00 0.03 0.03 56 1009.1
20260508192429 26 187 6.4 11.3 0.00 0.03 0.03 55 1009.4
20260508191925 26 213 3.2 8.0 0.00 0.03 0.03 56 1009.3
20260508191423 26 187 4.8 6.4 0.00 0.03 0.03 57 1009.3
20260508190919 26 143 8.0 9.7 0.00 0.03 0.03 56 1009.3
20260508190417 26 162 3.2 9.7 0.00 0.03 0.03 57 1009.4
20260508185913 26 107 4.8 9.7 0.00 0.03 0.03 58 1009.0
20260508185410 25 118 3.2 9.7 0.00 0.03 0.03 58 1009.3
20260508184908 25 171 3.2 4.8 0.00 0.03 0.03 56 1009.6
20260508184405 25 106 3.2 4.8 0.00 0.03 0.03 56 1009.6
20260508183901 25 121 4.8 8.0 0.00 0.03 0.03 57 1009.6
20260508183358 26 161 3.2 9.7 0.00 0.03 0.03 55 1009.8
20260508182853 26 267 3.2 11.3 0.00 0.03 0.03 57 1009.7
20260508182351 26 102 1.6 9.7 0.00 0.03 0.03 59 1009.9
20260508181846 26 194 6.4 8.0 0.00 0.03 0.03 57 1009.9
20260508181343 26 177 4.8 6.4 0.00 0.03 0.03 56 1010.0
20260508180840 26 93 4.8 6.4 0.00 0.03 0.03 56 1010.1
20260508180337 25 135 0.0 4.8 0.00 0.03 0.03 58 1010.2
20260508175833 25 188 1.6 9.7 0.00 0.03 0.03 58 1010.3
20260508175330 25 215 6.4 12.9 0.00 0.03 0.03 56 1010.4
20260508174828 24 159 3.2 8.0 0.00 0.03 0.03 59 1010.4
20260508174325 25 129 4.8 6.4 0.00 0.03 0.03 59 1010.3
20260508173821 24 113 4.8 8.0 0.00 0.03 0.03 59 1010.3
20260508173319 23 148 4.8 8.0 0.00 0.03 0.03 58 1010.6
20260508172814 23 214 0.0 4.8 0.00 0.03 0.03 63 1010.7
20260508172312 23 217 3.2 4.8 0.00 0.03 0.03 60 1010.9
20260508171808 23 140 0.0 3.2 0.00 0.03 0.03 62 1011.0
20260508171304 22 146 4.8 9.7 0.00 0.03 0.03 59 1011.0
20260508170801 23 177 4.8 8.0 0.00 0.03 0.03 60 1011.3
20260508170259 23 121 4.8 9.7 0.00 0.03 0.03 59 1011.4
20260508165755 24 158 8.0 9.7 0.00 0.03 0.03 58 1011.5
20260508165253 23 144 3.2 9.7 0.00 0.03 0.03 61 1011.4
20260508164749 23 94 0.0 11.3 0.00 0.03 0.03 61 1011.8
20260508164246 22 145 4.8 8.0 0.00 0.03 0.03 61 1011.6
20260508163744 22 168 4.8 9.7 0.00 0.03 0.03 60 1011.7
20260508163241 22 161 4.8 12.9 0.00 0.03 0.03 61 1011.7
20260508162737 22 151 14.5 14.5 0.00 0.03 0.03 62 1011.9
20260508162234 23 182 3.2 9.7 0.00 0.03 0.03 61 1011.9
20260508161731 22 145 6.4 8.0 0.00 0.03 0.03 62 1012.1
20260508161228 22 153 6.4 12.9 0.00 0.03 0.03 62 1012.2
20260508160726 22 186 6.4 12.9 0.00 0.03 0.03 64 1012.1
20260508160224 21 137 3.2 9.7 0.00 0.03 0.03 65 1012.2
20260508155720 21 159 4.8 8.0 0.00 0.03 0.03 64 1012.2
20260508155218 22 218 4.8 8.0 0.00 0.03 0.03 64 1012.3
20260508154714 22 256 4.8 17.7 0.00 0.03 0.03 64 1012.0
20260508154212 21 155 6.4 14.5 0.00 0.03 0.03 64 1012.0
20260508153708 21 180 3.2 9.7 0.00 0.03 0.03 66 1011.8
20260508153205 21 176 4.8 11.3 0.00 0.03 0.03 65 1012.4
20260508152702 21 219 4.8 9.7 0.00 0.03 0.03 65 1012.3
20260508152157 21 141 6.4 8.0 0.00 0.03 0.03 64 1012.4
20260508151654 22 128 3.2 6.4 0.00 0.03 0.03 63 1012.4
20260508151151 22 149 8.0 9.7 0.00 0.03 0.03 61 1012.3
20260508150648 22 148 6.4 6.4 0.00 0.03 0.03 64 1012.3
20260508150144 21 226 3.2 4.8 0.00 0.03 0.03 67 1012.2
20260508145640 21 120 3.2 6.4 0.00 0.03 0.03 66 1012.0
20260508145137 20 105 3.2 6.4 0.00 0.03 0.03 68 1012.4
20260508144634 20 88 3.2 4.8 0.00 0.03 0.03 69 1012.7
20260508144132 20 208 4.8 9.7 0.00 0.03 0.03 69 1012.5
20260508143629 20 126 6.4 6.4 0.00 0.03 0.03 69 1012.4
20260508143126 20 138 6.4 8.0 0.00 0.03 0.03 69 1012.2
20260508142622 20 159 3.2 6.4 0.00 0.03 0.03 70 1012.5
20260508142119 20 82 4.8 8.0 0.00 0.03 0.03 71 1012.4
20260508141616 20 181 4.8 8.0 0.00 0.03 0.03 74 1012.6
20260508141114 18 124 3.2 8.0 0.00 0.03 0.03 77 1012.6
20260508140611 18 141 6.4 8.0 0.00 0.03 0.03 77 1012.8
20260508140107 18 139 3.2 4.8 0.00 0.03 0.03 78 1012.6
20260508135602 17 159 6.4 6.4 0.00 0.03 0.03 78 1012.5
20260508135059 17 134 3.2 9.7 0.00 0.03 0.03 80 1012.4
20260508134556 17 165 3.2 6.4 0.00 0.03 0.03 81 1012.6
20260508134053 17 120 0.0 4.8 0.00 0.03 0.03 83 1012.7
20260508133549 17 97 3.2 6.4 0.00 0.03 0.03 84 1012.5
20260508133047 16 118 4.8 8.0 0.00 0.03 0.03 85 1012.3
20260508132545 16 147 4.8 9.7 0.00 0.03 0.03 87 1012.3
20260508132041 16 114 4.8 6.4 0.00 0.03 0.03 88 1012.5
20260508131536 16 325 0.0 3.2 0.00 0.03 0.03 88 1013.2
20260508131033 16 149 1.6 4.8 0.00 0.03 0.03 88 1012.8
20260508130531 16 23 3.2 4.8 0.00 0.03 0.03 88 1012.7
20260508130027 16 95 4.8 6.4 0.00 0.03 0.03 87 1012.6
20260508125522 16 113 3.2 3.2 0.00 0.03 0.03 86 1012.9
20260508125021 16 148 0.0 3.2 0.00 0.03 0.03 87 1013.0
20260508124518 16 112 3.2 4.8 0.00 0.03 0.03 86 1013.1
20260508124015 16 114 3.2 4.8 0.00 0.03 0.03 86 1012.7
20260508123514 16 139 4.8 9.7 0.00 0.03 0.03 87 1012.8
20260508123010 16 139 4.8 4.8 0.00 0.03 0.03 88 1012.8
20260508122507 16 123 4.8 4.8 0.00 0.03 0.03 87 1013.1
20260508122004 15 106 3.2 8.0 0.00 0.03 0.03 88 1013.1
20260508121502 15 140 3.2 6.4 0.00 0.03 0.03 89 1012.8
20260508121000 15 144 0.0 4.8 0.00 0.03 0.03 90 1012.9
20260508120457 15 136 3.2 8.0 0.00 0.03 0.03 90 1012.3
20260508115955 15 143 4.8 8.0 0.00 0.03 0.03 90 1012.6
20260508115452 15 117 0.0 3.2 0.00 0.03 0.03 90 1013.0
20260508114949 15 147 0.0 1.6 0.00 0.03 0.03 90 1012.8
20260508114446 15 137 0.0 4.8 0.00 0.03 0.03 90 1012.9
20260508113942 16 126 3.2 6.4 0.00 0.03 0.03 90 1012.6
20260508113440 16 115 3.2 6.4 0.00 0.03 0.03 90 1012.3
20260508112937 16 118 4.8 8.0 0.00 0.03 0.03 90 1012.5
20260508112434 16 96 4.8 6.4 0.00 0.03 0.03 89 1012.7
20260508111930 16 151 4.8 6.4 0.13 0.03 0.03 89 1013.1
20260508111428 16 114 1.6 4.8 0.13 0.03 0.03 89 1013.2
20260508110925 16 125 3.2 4.8 0.00 0.00 0.00 88 1013.3
20260508110423 16 81 4.8 6.4 0.00 0.00 0.00 88 1013.3
20260508105921 16 125 3.2 8.0 0.00 0.00 0.00 89 1013.7
20260508105418 16 255 3.2 9.7 0.00 0.00 0.00 89 1013.9
20260508104915 16 124 0.0 4.8 0.00 0.00 0.00 89 1012.9
20260508104413 16 122 0.0 4.8 0.00 0.00 0.00 89 1013.0
20260508103910 15 286 3.2 6.4 0.00 0.00 0.00 90 1012.7
20260508103407 15 166 3.2 3.2 0.00 0.00 0.00 90 1011.9
20260508102904 15 109 3.2 3.2 0.00 0.00 0.00 90 1011.8
20260508102402 15 122 1.6 4.8 0.00 0.00 0.00 90 1012.0
20260508101859 15 167 4.8 6.4 0.00 0.00 0.00 90 1011.6
20260508101356 15 159 6.4 8.0 0.00 0.00 0.00 90 1011.6
20260508100854 15 129 6.4 9.7 0.00 0.00 0.00 90 1011.4
20260508100353 15 133 4.8 6.4 0.00 0.00 0.00 90 1011.2
20260508095848 15 128 3.2 6.4 0.00 0.00 0.00 91 1011.5
20260508095346 15 127 3.2 4.8 0.00 0.00 0.00 91 1011.6
20260508094842 15 141 3.2 4.8 0.00 0.00 0.00 91 1011.9
20260508094339 15 104 3.2 4.8 0.00 0.00 0.00 91 1012.2
20260508093836 15 104 1.6 3.2 0.00 0.00 0.00 91 1012.1
20260508093334 15 93 3.2 4.8 0.00 0.00 0.00 90 1012.1
20260508092831 15 117 3.2 3.2 0.00 0.00 0.00 89 1011.9
20260508092329 15 93 3.2 3.2 0.00 0.00 0.00 89 1012.1
20260508091827 15 120 1.6 3.2 0.00 0.00 0.00 89 1012.2
20260508091323 15 256 3.2 4.8 0.00 0.00 0.00 89 1012.2
20260508090821 15 192 1.6 4.8 0.00 0.00 0.00 88 1012.4
20260508090320 16 64 0.0 4.8 0.00 0.00 0.00 88 1012.0
20260508085814 16 124 8.0 9.7 0.00 0.00 0.00 88 1011.7
20260508085312 16 103 1.6 6.4 0.00 0.00 0.00 87 1012.2
20260508084808 16 120 3.2 4.8 0.00 0.00 0.00 87 1012.3
20260508084305 16 135 3.2 6.4 0.00 0.00 0.00 87 1012.2
20260508083803 16 117 3.2 6.4 0.00 0.00 0.00 86 1012.5
20260508083300 16 131 3.2 11.3 0.00 0.00 0.00 86 1012.5
20260508082759 16 129 4.8 8.0 0.00 0.00 0.00 86 1012.6
20260508082258 16 106 3.2 3.2 0.00 0.00 0.00 86 1013.1
20260508081755 16 138 4.8 4.8 0.00 0.00 0.00 85 1013.3
20260508081251 16 173 3.2 6.4 0.00 0.00 0.00 85 1013.5
20260508080748 16 155 3.2 6.4 0.00 0.00 0.00 86 1013.7
20260508080247 16 175 3.2 3.2 0.00 0.00 0.00 86 1013.5
20260508075742 16 141 3.2 6.4 0.00 0.00 0.00 85 1013.5
20260508075239 16 130 3.2 3.2 0.00 0.00 0.00 86 1013.2
20260508074737 15 149 3.2 3.2 0.00 0.00 0.00 85 1013.2
20260508074235 15 116 1.6 4.8 0.00 0.00 0.00 86 1013.0
20260508073731 15 123 6.4 8.0 0.00 0.00 0.00 86 1013.0
20260508073229 15 127 3.2 3.2 0.00 0.00 0.00 87 1012.9
20260508072725 15 125 3.2 4.8 0.00 0.00 0.00 88 1013.1
20260508072222 15 114 3.2 6.4 0.00 0.00 0.00 89 1012.9
20260508071719 15 107 3.2 4.8 0.00 0.00 0.00 89 1012.9
20260508071218 15 104 3.2 4.8 0.00 0.00 0.00 89 1013.2
20260508070715 15 93 3.2 4.8 0.00 0.00 0.00 89 1013.1
20260508070214 15 105 3.2 3.2 0.00 0.00 0.00 88 1013.4
20260508065710 15 110 0.0 3.2 0.00 0.00 0.00 88 1013.5
20260508065208 15 94 3.2 3.2 0.00 0.00 0.00 88 1013.5